Hlavní strana
METAR-TAF:

METAR-TAF

Letiště :

Williamsburg-Jamestown Airport

Williamsburg, Virginie, Spojené státy americké

zeměpisná šířka: 37-14-21N, zeměpisná délka: 076-42-57W, výška: 15 m

Aktuální stav počasí

Zpráva byla vytvořena před 12 minutami, v 09:35 UTC
Bezvětří
Teplota 23°C
Vlhkost vzduchu 100%
Tlak 1018 hPa
Viditelnost: 16.1 km

METAR: KJGG 070935Z AUTO 00000KT 10SM 23/23 A3007 RMK AO1

Čas: 05:47 (09:47 UTC)


TAF: chybějící

Stav a předpovědi počasí z více než 4 000 letišť (zprávy METAR a TAF).

Červené a žluté tečky na mapě představují dostupné meteorologické stanice.

Když kurzor umístíte na tečku, zobrazí se název stanice.

Pak kliknutím zobrazíte stav a předpověď počasí.

Chcete-li změnit mapu, kliknutím na zelené tlačítko se znaménkem +mapu přiblížíte, kliknutím na zelené tlačítko se znaménkem – mapu oddálíte a kliknutím na zelené šipky přejdete na sousední mapy.


METAR-TAF: